GRZLY21 EHBD-EHGR

Flight info

Callsign GRZLY21
Flight time N/A
Altitude 1200
Route VFR
Aircraft H47/M-DFILOTUVY/SC

Departure

Time N/A
Airport EHBD

Arrival

Time 2026-05-06 14:16
Airport Gilze Rijen Air Base (EHGR)
Time Latitude Longitude Altitude Speed Heading
2026-05-06 13:44 51.25720 5.60187 120 ft 0 kts 117°
2026-05-06 13:48 51.25707 5.60207 123 ft 8 kts 118°
2026-05-06 13:49 51.25750 5.60322 133 ft 38 kts 26°
2026-05-06 13:49 51.26177 5.60706 185 ft 88 kts 29°
2026-05-06 13:49 51.26741 5.61097 476 ft 94 kts 18°
2026-05-06 13:49 51.27454 5.60832 437 ft 114 kts 340°
2026-05-06 13:50 51.28129 5.60102 755 ft 124 kts 329°
2026-05-06 13:50 51.28790 5.59106 813 ft 136 kts 315°
2026-05-06 13:50 51.29240 5.57798 893 ft 132 kts 301°
2026-05-06 13:50 51.29635 5.56462 968 ft 135 kts 301°
2026-05-06 13:51 51.30093 5.55082 964 ft 144 kts 304°
2026-05-06 13:51 51.30600 5.53675 970 ft 148 kts 304°
2026-05-06 13:51 51.31055 5.52194 966 ft 149 kts 299°
2026-05-06 13:51 51.31513 5.50735 965 ft 146 kts 308°
2026-05-06 13:52 51.32097 5.49440 971 ft 141 kts 313°
2026-05-06 13:52 51.32699 5.48224 971 ft 139 kts 314°
2026-05-06 13:52 51.33340 5.47058 979 ft 140 kts 319°
2026-05-06 13:52 51.34023 5.45955 978 ft 139 kts 321°
2026-05-06 13:53 51.34719 5.44898 981 ft 138 kts 324°
2026-05-06 13:53 51.35417 5.43835 982 ft 139 kts 321°
2026-05-06 13:53 51.36119 5.42779 981 ft 139 kts 324°
2026-05-06 13:53 51.36868 5.41813 979 ft 141 kts 326°
2026-05-06 13:54 51.37633 5.40812 979 ft 139 kts 326°
2026-05-06 13:54 51.38402 5.39924 982 ft 138 kts 329°
2026-05-06 13:54 51.39211 5.39102 982 ft 138 kts 333°
2026-05-06 13:54 51.40040 5.38301 982 ft 140 kts 334°
2026-05-06 13:55 51.40868 5.37510 982 ft 138 kts 334°
2026-05-06 13:55 51.41713 5.36745 982 ft 140 kts 336°
2026-05-06 13:55 51.42554 5.35937 983 ft 140 kts 333°
2026-05-06 13:55 51.43389 5.35132 981 ft 140 kts 334°
2026-05-06 13:56 51.44258 5.34401 980 ft 142 kts 337°
2026-05-06 13:56 51.45138 5.33718 982 ft 140 kts 339°
2026-05-06 13:56 51.46009 5.33059 983 ft 137 kts 339°
2026-05-06 13:56 51.46861 5.32380 982 ft 135 kts 337°
2026-05-06 13:57 51.47678 5.31649 982 ft 134 kts 335°
2026-05-06 13:57 51.48459 5.30838 984 ft 133 kts 331°
2026-05-06 13:57 51.49205 5.29956 981 ft 133 kts 329°
2026-05-06 13:57 51.49923 5.29020 983 ft 133 kts 327°
2026-05-06 13:58 51.50654 5.28102 981 ft 135 kts 329°
2026-05-06 13:58 51.51389 5.27170 983 ft 137 kts 327°
2026-05-06 13:58 51.52148 5.26224 979 ft 138 kts 329°
2026-05-06 13:58 51.52939 5.25326 979 ft 138 kts 328°
2026-05-06 13:59 51.53774 5.24566 980 ft 138 kts 332°
2026-05-06 13:59 51.54635 5.23878 981 ft 138 kts 332°
2026-05-06 13:59 51.55505 5.23240 978 ft 137 kts 333°
2026-05-06 13:59 51.56369 5.22654 980 ft 135 kts 333°
2026-05-06 14:00 51.57240 5.22113 982 ft 133 kts 334°
2026-05-06 14:00 51.58111 5.21601 980 ft 134 kts 334°
2026-05-06 14:00 51.59001 5.21117 983 ft 135 kts 334°
2026-05-06 14:00 51.59893 5.20661 977 ft 136 kts 334°
2026-05-06 14:01 51.60802 5.20219 979 ft 136 kts 334°
2026-05-06 14:01 51.61701 5.19751 980 ft 135 kts 340°
2026-05-06 14:01 51.62525 5.18997 980 ft 137 kts 331°
2026-05-06 14:01 51.63308 5.18104 980 ft 138 kts 326°
2026-05-06 14:02 51.64084 5.17186 977 ft 138 kts 327°
2026-05-06 14:02 51.64856 5.16263 979 ft 138 kts 328°
2026-05-06 14:02 51.65615 5.15349 982 ft 136 kts 327°
2026-05-06 14:02 51.66390 5.14441 980 ft 139 kts 329°
2026-05-06 14:03 51.67170 5.13522 980 ft 139 kts 327°
2026-05-06 14:03 51.67964 5.12614 980 ft 140 kts 329°
2026-05-06 14:03 51.68769 5.11734 980 ft 139 kts 330°
2026-05-06 14:03 51.69557 5.10856 980 ft 137 kts 331°
2026-05-06 14:04 51.70332 5.09956 979 ft 138 kts 329°
2026-05-06 14:04 51.71110 5.09052 979 ft 137 kts 330°
2026-05-06 14:04 51.71882 5.08153 979 ft 137 kts 329°
2026-05-06 14:04 51.72654 5.07256 977 ft 139 kts 329°
2026-05-06 14:05 51.73279 5.06014 977 ft 148 kts 307°
2026-05-06 14:05 51.73703 5.04519 979 ft 145 kts 303°
2026-05-06 14:05 51.74194 5.03094 977 ft 145 kts 308°
2026-05-06 14:05 51.74785 5.01789 980 ft 143 kts 314°
2026-05-06 14:06 51.75369 5.00470 978 ft 147 kts 309°
2026-05-06 14:06 51.75784 4.98946 976 ft 151 kts 293°
2026-05-06 14:06 51.75953 4.97275 979 ft 149 kts 286°
2026-05-06 14:06 51.76131 4.95630 977 ft 150 kts 286°
2026-05-06 14:07 51.76165 4.93938 966 ft 157 kts 269°
2026-05-06 14:07 51.75543 4.92405 960 ft 178 kts 223°
2026-05-06 14:07 51.74330 4.92238 965 ft 182 kts 160°
2026-05-06 14:07 51.73699 4.93836 1020 ft 164 kts 101°
2026-05-06 14:08 51.73547 4.95449 946 ft 146 kts 97°
2026-05-06 14:08 51.73318 4.97140 980 ft 149 kts 98°
2026-05-06 14:08 51.73087 4.98845 984 ft 157 kts 98°
2026-05-06 14:08 51.72925 5.00564 985 ft 156 kts 92°
2026-05-06 14:09 51.72917 5.02306 987 ft 154 kts 85°
2026-05-06 14:09 51.72939 5.04042 982 ft 155 kts 86°
2026-05-06 14:09 51.72997 5.05775 982 ft 154 kts 83°
2026-05-06 14:09 51.73124 5.07495 977 ft 154 kts 81°
2026-05-06 14:10 51.72746 5.09184 951 ft 179 kts 125°
2026-05-06 14:10 51.71735 5.10289 975 ft 179 kts 152°
2026-05-06 14:10 51.70526 5.10686 1003 ft 176 kts 176°
2026-05-06 14:10 51.69347 5.10345 983 ft 172 kts 195°
2026-05-06 14:11 51.68210 5.09868 982 ft 167 kts 196°
2026-05-06 14:11 51.67100 5.09313 980 ft 167 kts 200°
2026-05-06 14:11 51.66005 5.08705 981 ft 164 kts 201°
2026-05-06 14:11 51.64948 5.08031 977 ft 165 kts 207°
2026-05-06 14:12 51.63997 5.06963 985 ft 166 kts 220°
2026-05-06 14:12 51.63123 5.05782 977 ft 164 kts 227°
2026-05-06 14:12 51.62443 5.04321 985 ft 162 kts 238°
2026-05-06 14:12 51.61833 5.02813 983 ft 158 kts 243°
2026-05-06 14:13 51.61387 5.01238 981 ft 156 kts 252°
2026-05-06 14:13 51.60977 4.99618 980 ft 156 kts 253°
2026-05-06 14:13 51.60599 4.97992 952 ft 153 kts 255°
2026-05-06 14:13 51.59937 4.96758 940 ft 150 kts 212°
2026-05-06 14:14 51.58978 4.96275 794 ft 136 kts 197°
2026-05-06 14:14 51.58115 4.95833 735 ft 119 kts 198°
2026-05-06 14:14 51.57367 4.95489 528 ft 107 kts 195°
2026-05-06 14:14 51.56726 4.95015 348 ft 105 kts 224°
2026-05-06 14:15 51.56653 4.93954 165 ft 85 kts 288°
2026-05-06 14:15 51.56746 4.93138 159 ft 66 kts 294°
2026-05-06 14:15 51.56823 4.92407 146 ft 67 kts 295°
2026-05-06 14:15 51.56900 4.91681 83 ft 50 kts 308°
2026-05-06 14:16 51.56960 4.91580 60 ft 5 kts
2026-05-06 14:16 51.56979 4.91593 54 ft 4 kts 12°
2026-05-06 14:16 51.57004 4.91600 42 ft 1 kts 13°
2026-05-06 14:16 51.57026 4.91608 42 ft 4 kts 12°
2026-05-06 14:17 51.57065 4.91619 42 ft 9 kts
2026-05-06 14:17 51.57122 4.91632 42 ft 5 kts 334°
2026-05-06 14:17 51.57139 4.91569 42 ft 11 kts 281°
2026-05-06 14:17 51.57125 4.91494 42 ft 6 kts 187°
2026-05-06 14:18 51.57110 4.91491 42 ft 0 kts 189°